User: anonymous   Login
Location: Caltech
(34.1382°N, 118.1253°W)
Time: 01:09:27
(UTC-07:00)
Language:

CZ-2C R/B - Orbit

View from above orbital plane
View from above orbital plane
View from above satellite
View from above satellite

Ground track
Ground track

The orbit data is extracted from the following two-line orbital elements,

1 36089U 09061B   17081.94987389 +.00000131 +00000-0 +44146-4 0  9994
2 36089 098.0521 087.5776 0081074 311.9313 078.6591 14.49647506389129
Epoch (UTC): 22 March 2017 22:47:49
Eccentricity: 0.0081074
inclination: 98.0521°
perigee height: 669 km
apogee height: 784 km
right ascension of ascending node: 87.5776°
argument of perigee: 311.9313°
revolutions per day: 14.49647506
mean anomaly at epoch: 78.6591°
orbit number at epoch: 38912

The dashed part of the orbit path shows where the satellite is in the earth's shadow,  

DLR